International Skating Union - Official Site

ESSENT ISU WORLD ALLROUND CHAMPIONSHIPS 2012
February 18-19, 2012

Draw | Lap Times | Index | Classification

Referee: Tapani  POTKA  (FIN)
Starter: Hartmut  WEIRAUCH  (GER)
StartTime: EndTime: Air Temp: Ice Temp: Humidity:
17:00 17:50 16℃ -5.8℃ 35.5%
Result 5000m Ladies
Rankings as of Feb 19 2012 6:43PM
Rank: No.: Name: Nation: Time: Behind: Points:
1 6 Martina  SÁBLIKOVÁ CZE CZE 6:58.74200m - 20.96 - (20.9)
600m - 54.08 - (33.1)
1000m - 1:27.36 - (33.2)
1400m - 2:00.44 - (33.0)
1800m - 2:33.34 - (32.9)
2200m - 3:06.12 - (32.7)
2600m - 3:39.37 - (33.2)
3000m - 4:12.45 - (33.0)
3400m - 4:45.61 - (33.1)
3800m - 5:18.80 - (33.1)
4200m - 5:52.04 - (33.2)
4600m - 6:25.51 - (33.4)
5000m - 6:58.74 - (33.2)
41.874
2 18 Ireen  WÜST NED NED 7:02.39200m - 20.15 - (20.1)
600m - 52.91 - (32.7)
1000m - 1:26.49 - (33.5)
1400m - 1:59.32 - (32.8)
1800m - 2:32.41 - (33.0)
2200m - 3:05.56 - (33.1)
2600m - 3:38.94 - (33.3)
3000m - 4:12.20 - (33.2)
3400m - 4:45.89 - (33.6)
3800m - 5:19.04 - (33.1)
4200m - 5:53.51 - (34.4)
4600m - 6:27.94 - (34.4)
5000m - 7:02.39 - (34.4)
3.65 42.239
3 17 Linda  de VRIES NED NED 7:08.09200m - 20.25 - (20.2)
600m - 53.91 - (33.6)
1000m - 1:27.50 - (33.5)
1400m - 2:01.38 - (33.8)
1800m - 2:34.73 - (33.3)
2200m - 3:08.39 - (33.6)
2600m - 3:42.04 - (33.6)
3000m - 4:15.99 - (33.9)
3400m - 4:50.10 - (34.1)
3800m - 5:24.79 - (34.6)
4200m - 5:59.39 - (34.5)
4600m - 6:33.99 - (34.6)
5000m - 7:08.09 - (34.0)
9.35 42.809
4 2 Cindy  KLASSEN CAN CAN 7:09.23200m - 20.55 - (20.5)
600m - 53.85 - (33.2)
1000m - 1:27.66 - (33.8)
1400m - 2:01.16 - (33.5)
1800m - 2:34.88 - (33.7)
2200m - 3:08.32 - (33.4)
2600m - 3:42.13 - (33.8)
3000m - 4:16.11 - (33.9)
3400m - 4:50.15 - (34.0)
3800m - 5:23.87 - (33.7)
4200m - 5:57.88 - (34.0)
4600m - 6:32.80 - (34.9)
5000m - 7:09.23 - (36.4)
10.49 42.923
5 9 Claudia  PECHSTEIN GER GER 7:11.08200m - 21.06 - (21.0)
600m - 54.29 - (33.2)
1000m - 1:28.02 - (33.7)
1400m - 2:02.06 - (34.0)
1800m - 2:35.80 - (33.7)
2200m - 3:10.05 - (34.2)
2600m - 3:44.58 - (34.5)
3000m - 4:19.13 - (34.5)
3400m - 4:53.86 - (34.7)
3800m - 5:28.44 - (34.5)
4200m - 6:03.02 - (34.5)
4600m - 6:37.38 - (34.3)
5000m - 7:11.08 - (33.6)
12.34 43.108
6 14 Do-Yeong  PARK KOR KOR 7:13.64200m - 21.09 - (21.0)
600m - 54.84 - (33.7)
1000m - 1:28.53 - (33.6)
1400m - 2:02.00 - (33.4)
1800m - 2:35.54 - (33.5)
2200m - 3:09.37 - (33.8)
2600m - 3:43.46 - (34.0)
3000m - 4:17.72 - (34.2)
3400m - 4:52.27 - (34.5)
3800m - 5:27.24 - (34.9)
4200m - 6:02.45 - (35.2)
4600m - 6:37.84 - (35.3)
5000m - 7:13.64 - (35.8)
14.90 43.364
7 16 Jorien  VOORHUIS NED NED 7:14.86200m - 20.70 - (20.6)
600m - 53.95 - (33.2)
1000m - 1:28.06 - (34.1)
1400m - 2:02.41 - (34.3)
1800m - 2:36.48 - (34.0)
2200m - 3:11.13 - (34.6)
2600m - 3:45.79 - (34.6)
3000m - 4:20.62 - (34.8)
3400m - 4:55.50 - (34.8)
3800m - 5:30.42 - (34.9)
4200m - 6:05.26 - (34.8)
4600m - 6:40.37 - (35.1)
5000m - 7:14.86 - (34.4)
16.12 43.486
8 3 Christine  NESBITT CAN CAN 7:18.19200m - 21.14 - (21.1)
600m - 54.76 - (33.6)
1000m - 1:29.30 - (34.5)
1400m - 2:03.78 - (34.4)
1800m - 2:38.01 - (34.2)
2200m - 3:12.71 - (34.7)
2600m - 3:47.13 - (34.4)
3000m - 4:21.87 - (34.7)
3400m - 4:56.58 - (34.7)
3800m - 5:31.52 - (34.9)
4200m - 6:06.48 - (34.9)
4600m - 6:41.99 - (35.5)
5000m - 7:18.19 - (36.1)
19.45 43.819
9 4 Brittany  SCHUSSLER CAN CAN 7:19.59200m - 21.44 - (21.4)
600m - 54.42 - (32.9)
1000m - 1:28.40 - (33.9)
1400m - 2:02.49 - (34.0)
1800m - 2:36.79 - (34.2)
2200m - 3:10.93 - (34.1)
2600m - 3:46.25 - (35.3)
3000m - 4:20.82 - (34.5)
3400m - 4:55.84 - (35.0)
3800m - 5:31.40 - (35.5)
4200m - 6:07.26 - (35.8)
4600m - 6:43.23 - (35.9)
5000m - 7:19.59 - (36.3)
20.85 43.959
10 21 Ida  NJÅTUN NOR NOR 7:19.62200m - 21.06 - (21.0)
600m - 54.78 - (33.7)
1000m - 1:29.54 - (34.7)
1400m - 2:03.79 - (34.2)
1800m - 2:38.49 - (34.7)
2200m - 3:12.87 - (34.3)
2600m - 3:47.66 - (34.7)
3000m - 4:22.30 - (34.6)
3400m - 4:57.32 - (35.0)
3800m - 5:32.46 - (35.1)
4200m - 6:08.03 - (35.5)
4600m - 6:43.62 - (35.5)
5000m - 7:19.62 - (36.0)
20.88 43.962
11 27 Yekaterina  LOBYSHEVA RUS RUS 7:26.30200m - 20.70 - (20.6)
600m - 53.58 - (32.8)
1000m - 1:27.62 - (34.0)
1400m - 2:02.11 - (34.4)
1800m - 2:36.91 - (34.7)
2200m - 3:11.73 - (34.8)
2600m - 3:46.90 - (35.1)
3000m - 4:22.28 - (35.3)
3400m - 4:57.94 - (35.6)
3800m - 5:34.16 - (36.2)
4200m - 6:11.14 - (36.9)
4600m - 6:48.71 - (37.5)
5000m - 7:26.30 - (37.5)
27.56 44.630
12 32 Jilleanne  ROOKARD USA USA 7:31.28200m - 21.67 - (21.6)
600m - 55.50 - (33.8)
1000m - 1:29.79 - (34.2)
1400m - 2:03.89 - (34.0)
1800m - 2:37.99 - (34.1)
2200m - 3:12.48 - (34.4)
2600m - 3:47.69 - (35.2)
3000m - 4:23.04 - (35.3)
3400m - 4:58.82 - (35.7)
3800m - 5:35.84 - (37.0)
4200m - 6:13.44 - (37.6)
4600m - 6:51.80 - (38.3)
5000m - 7:31.28 - (39.4)
32.54 45.128